[Date Prev][Date Next][Thread Prev][Thread Next][Date Index][Thread Index]

[jamsat-news:1592] jas2info #244



========================   最新情報   ==============================

        Last updated :28SEP2001  12:40(JST)   #244

==================================================================
   
  1)アマチュア通信衛星情報、FOシリーズの軌道要素、テレメトリ、QSOの
   状況等をまとめてみました.
   
   FO−29の2001年9月28日(金)の9:12(JST)のパスでは
  JARLのホームページのとうりアナログ運用でした。 今日までの観測した
  テレメトリーと最終の分析結果を掲載しておきます.
    25日から27日までのテレメトリ信号の後半部にはかなりの信号が重複しており
  取得が厳しいものであったが28日はきれいに信号を受信できた。

AS25255C  28SEP2001
9:15-924(JST)
FREQ. 435.800-.790MHz

HI HI AE C7 88 55 00 D4 52 3C 09 73 4F 79 57 63 9D 98 B0 6D 91 91 97 93 91 
HI HI AE C7 88 55 00 D4 52 3C 09 73 4F 92 5E 63 9D 98 B0 61 91 91 96 93 91 
HI HI AE C7 88 55 00 D4 52 3C 09 73 4F 9D 5D 63 9C 98 B0 71 91 91 96 93 91 
HI HI AE C7 88 55 00 D4 52 3C 09 73 50 A5 60 63 9C 98 B0 82 91 91 96 93 91 
HI HI AE C7 88 55 00 D4 52 3C 09 73 51 AB 62 63 9C 98 B0 77 92 91 96 93 91 
HI HI AE C7 88 55 00 D4 52 3C 09 73 51 AD 67 63 9D 98 B0 72 92 91 96 93 91 
HI HI AE C7 88 55 00 D4 52 3C 09 73 50 AC 6A 63 9C 98 B0 7C 92 91 96 93 91 
HI HI AE C7 88 55 00 D4 52 3C 09 73 4D A9 6E 63 9C 98 B0 7D 92 91 96 93 91 
HI HI AE C7 88 55 00 D4 52 3C 09 73 4A A2 71 63 9C 98 B0 6B 92 92 95 93 91 
HI HI AE C7 88 55 00 D4 52 3C 09 73 45 99 78 63 9C 98 B0 62 92 91 95 93 90 
HI HI AE C7 88 55 00 D4 52 3C 09 73 40 8F 79 63 9D 98 B0 86 92 91 95 93 90 
HI HI AE C7 88 55 00 D4 52 3C 09 73 39 84 79 63 9D 98 B0 72 92 91 95 93 90 
  
AS25248C  27SEP2001
19:33-19:47(JST)
FREQ. 435.804-.786MHz

HI HI AE C7 88 55 00 D4 2F D5 09 3E 36 73 54 63 9B 96 B0 6C 8F 8C 90 91 8D 
HI HI AE C7 88 55 00 D4 2F D5 09 3E 3B 73 54 63 9B 96 B0 81 8F 8C 90 91 8D 
HI HI AE C7 88 55 00 D4 2F D5 09 3E 40 71 58 62 9B 96 B0 71 8F 8C 90 91 8D 
HI HI AE C7 88 55 00 D4 2F D5 09 3E 45 6E 5D 63 9B 96 B0 6B 8F 8C 90 91 8D 
HI HI AE C7 88 55 00 D4 2F D5 09 3E 48 69 5D 63 9B 97 B0 71 8F 8C 90 91 8D
HI HI AE C7 88 55 00 D4 2F D5 O9 3E 43 64    63 9D 97 B0 72 8F 8C 90 91 8C 
HI HI AE C7 88 55 00 D4 2F D5 09 3E 47 5E 54 63 9B 97 B0 7E 8F 8C 90 91 8C 
HI HI AE C7 88 55 00 D4 2F D5 09 3E 4B 58    63 9B 96 B0 7E 8F 8C 90 91 8C 
HI HI AE C7 88 55 00 D4 2F D5 09 3E 49 52 2C 63 9B 96 B0 7E 8F 8C 90 91 8C 
HI HI AE C7 88 55 00 D4 2F D5 09 3E 46 4E 10 63 9B 96 B0 7E 8F 8D 90 91 8C 
HI HI AE C7 85 55 00 D4 2F D5 09 3E 47 49    63 9D 8B B0 69 8F 8D 8F 90 8C 
HI HI AE C7 88 55 00 D4 2F D5 09 3E 48 5E 07 64 8C 8B B0 68 86 8D 8F 90 8C 
HI HI AE C7 88 55 00 D4 2F D5 09 3E 3D 51 0D    8B 8A 8F 7C 8F 8D 8F 90 8C
HI HI AE C7 88 55 00 D4 2F D5 09 3E 3A 56 08 64    8A 8F 81 8F 8D 8F 90 8C 
HI HI AE C7 88 55 00 D4 2F D5 96 3E 39 5D 05       8A 95 6F 90 8D 8F 90 8C
HI HI AE 07 88 55 00 D4 2F D5 09 3E 49 64 11 6E 85 8A 96 6F 90 8E 7F 90 8C 
HI HI AE C7 87 55 00 D4 2F D5 09 3E 3F 6E 65 69 8D 8D 97 6B 90 8E 7F 90 8C 
HI HI AE C7 88 55 00 D4 2F D5 09 3E 3B 7B 65 63 8F 8D 9A 84 90 8E 7F 90 8C 
HI HI AE C7 88 55 00 D4 2F D5 09 3F 85 6D 51 60 8E 9B B0 89 9O 8E 8F 90 8C 
HI HI AE 07 88 55 00 D4 2F D5 09 3E 44 8C 71 5F 91 8F B0 7C 91 8F 8F 90 8C 
HI HI AE C7 88 55 00 D4 2F D5 09 3E 4B 8E 

AS25234C  26SEP2001
18:51-18:53(JST)
FREQ. 435.792-.789MHz

HI HI AE C7 88 55 00 D4 00 DC 09 45 87 3E A8 8A 8E 89 95 87 94 90 8F 91 8E 
HI HI AE C7 88 55 00 D4 00 DC 09 45 8A 42 08 8C 8A 89 95 86 94 90 7F 91 8E 
HI HI AE C7 88 55 00 D4 00 DC 09 45 8D 47 08 88 8A 89 95 75 94 90 8F 91 8E 
HI HI AE C7 88 55 00 D4 00 DB 09 55 8F 4B 05 83 86 89 95 86 94 90 8F 91 8E 
 
AS25221C  25SEP2001
19:40-19:50(JST)
FREQ. 435.803-.786MHz

                                                   99 B0 97 9A 8F 90 99 92 
HI HI AE C7 88 55 00 D4 35 A7 09 4E 44 43 5D 63 9D 99 B0 78 99 8F 90 99 92 
HI HI AE C7 88 55 00 D4 35 A7 09 4E 3E 4C 62 64 9D 99 B0 59 99 8F 90 99 92 
HI HI AE C7 88 55 00 D4 35 A7 09 4E 3A 55 65 63 9D 98 B0 72 99 8F 90 99 92 
HI HI AE C7 88 55 00 D4 35 A7 09 4E 37 5D 4D 63 9D 98 A8 80 99 8F 90 99 92 
HI HI AE C7 88 55 00 D4 35 A7 09 4E 35 63 1E 79 95 91 97 71 99 8F 8F 99 92 
HI HI AE C7 88 55 00 D4 35 A7 09 4E 35 68 0D 82 8F 8D 93 6D 99 8F 8F 98 92 
HI HI AE C7 88 55 00 D4 35 A7 09 4E 35 6C 07 84 8D 8B 91 88 99 8F 8F 98 92 
HI HI AE C7 88 55 00 D4 35 A7 09 4E 35 6F 06 85 8C 8A 8F 87 99 8F 8F 98 92 
HI HI AE 07 88 55 00 D4 35 A7 09 4E 37 73 05 84 8B 8A 96 82 99 8F 8E 98 92
HI HI AE 07 88 55 00 D4 35 A7 09 4E 38 75 08 83 8B 8A 95 72 99 8F 90 98 92 
HI HI AE 07 88 55 00 D4 35 A7 09 4E 39 77 08 84 8B 89 95 79 99 8F 90 98 92 
HI HI AE 07 88 55 00 D4 35 A7 09 4E 35 77 08 79 8B 8A 96 61 99 8F 90 98 92 
HI HI AE 07 88 55 00 D4 35 A7 09 4E 35   
 
------------------------ FO-29の軌道要素 ------------------------------        
 
  ■ 軌道要素1:「jamsat−keps:1032」より         
          SB KEPS @ AMSAT  $ORB01250.N
          2Line Orbital Elements 01250.AMSAT

HR AMSAT ORBITAL ELEMENTS FOR AMATEUR SATELLITES IN NASA FORMAT
FROM WA5QGD FORT WORTH,TX September 7, 2001
SEND SUBSCRIBE/UNSUBSCRIBE TO majordomo@amsat.org ONLY
BID: ORB01250.N

 DECODE 2-LINE ELSETS WITH THE FOLLOWING KEY:
 1 AAAAAU 00  0  0 BBBBB.BBBBBBBB  .CCCCCCCC  00000-0  00000-0 0  DDDZ
 2 AAAAA EEE.EEEE FFF.FFFF GGGGGGG HHH.HHHH III.IIII JJ.JJJJJJJJKKKKKZ
 KEY: A-CATALOGNUM B-EPOCHTIME C-DECAY D-ELSETNUM E-INCLINATION F-RAAN
 G-ECCENTRICITY H-ARGPERIGEE I-MNANOM J-MNMOTION K-ORBITNUM Z-CHECKSUM

FO-29
1 24278U 96046B   01248.67012234  .00000004  00000-0  38232-4 0 04438
2 24278 098.5316 102.9242 0351052 153.1482 208.8314 13.52779436249522

 ■ 軌道要素2:「jamsat−keps:1031」より
        SB KEPS @ AMSAT  $ORB01250.O
        Orbital Elements  01250.OSCAR

HR AMSAT ORBITAL ELEMENTS FOR OSCAR SATELLITES
FROM WA5QGD FORT WORTH,TX September 7, 2001
SEND SUBSCRIBE/UNSUBSCRIBE TO majordomo@amsat.org ONLY
BID: ORB01250.O
TO ALL RADIO AMATEURS BT
 
Satellite: FO-29
Catalog number: 24278
Epoch time:      01248.67012234
Element set:    0443
Inclination:      098.5316 deg
RA of node:       102.9242 deg
Eccentricity:    0.0351052
Arg of perigee:   153.1482 deg
Mean anomaly:     208.8314 deg
Mean motion:   13.52779436 rev/day
Decay rate:        4.0e-08 rev/day^2
Epoch rev:           24952
Checksum:              288

-------------------  FO-29(JAS-2)のテレメトリに関する情報  ---------------------- 
 
2)上記9月28日(金)のテレメトリの最終行を分析しておきます.

AS25255C  28SEP2001
9:15-924(JST)
FREQ. 435.800-.790MHz

HI HI AE C7 88 55 00 D4 52 3C 09 73 39 84 79 63 9D 98 B0 72 92 91 95 93 90 

テレメトリ   内 容         換算算値 単 位
3C	磁気センサーZ軸=	27941.2	[nT]
3D	磁気センサX軸	=	64705.9	[nT]
4A	太陽電池発生電流=	1186.3	[mA]
4B	B充放電電流	=	 -59.6	[mA]
4C	B端子電圧	=	  16.9	[V]
4D	B中間端子電圧	=	   7.3	[V]
5A	バス電圧	=	  17.3	[V]
5B	JTA送信電力	=	 642.9	[mW]
5C 	構体温度1	=	  25.2	[℃]
5D	構体温度2	=	  25.6	[℃]
6A	構体温度3	=	  24.0	[℃]
6B	構体温度4	=	  24.8	[℃]
6C	Bセル温度	=	  26.0	[℃]

 ========================== FO-29(ふじ3号)のQSO情報等 ======================
   
 3)[jamsat-bb:

 ===============================================================================
   4)JARL のホームページに運用予定が記載されていましたのでご紹介します.
       ( http://www.jarl.or.jp/Japanese/3_Fuji/new/uy.htm )

        ■ ふじ3号/FOー29/JAS-2 ■  
   
     *** 運用予定について ***

 7月2日(月) 〜 10月1日(月)アナログ系運用 


  *なお,運用予定は都合により変更することがありますので予めご了承願います。

 照会先 : lab@jarl.or.jp

 最新の情報はテレホンサービス(03−3942−1000)をお聞きください。  
 以後の運用につきましては平成13年10月上旬にお知らせ致します。
    
-----------------------    FO−20(JAS-1b)道要素   -------------------------
  5)
  ■ 軌道要素1 :出典はFO-29「ふじ3号」に同じ.
  
FO-20
1 20480U 90013C   01250.65657922  .00000011  00000-0  89059-4 0  3392
2 20480  99.0523 303.6413 0540659 122.4094 243.0493 12.83296964542674
 
  ■ 軌道要素2 :出典はFO−29「ふじ3号」に同じ.
               
Satellite: FO-20
Catalog number: 20480
Epoch time:      01250.65657922
Element set:     339
Inclination:       99.0523 deg
RA of node:       303.6413 deg
Eccentricity:    0.0540659
Arg of perigee:   122.4094 deg
Mean anomaly:     243.0493 deg
Mean motion:   12.83296964 rev/day
Decay rate:        1.1e-07 rev/day^2
Epoch rev:           54267
Checksum:              292

 --------------------------------------------------------------------------------
 
         ■ ふじ2号/FO−20/JAS-1b ■      
            
          「ふじ2号」 現況                                                                                  
             
   JAS-1b(ふじ2号)のCWテレメトリ信号に,1997年10月12日12時(JST)の
 日本上空通過時,3桁の数字が繰り返されるはずが3個の長音の繰り返しとなっているという
 異常が発見されました。この不具合は次の通過時からは回復していましたが13日15時20分の
 通過時に再び観測されました。現在はA0の送信が続いています。衛星のアナログ系中継モード
 動作は異常が無く,正常時のテレメトリ内容からは衛星の動作に異常は認められません。従って,
 直ちに衛星のミッションに影響することは無いと予想されますので,当面はアナログ系中継
 モードを継続します。衛星は既に打ち上げてから7年8ヶ月を経ておりますので,今後は監視を
 強化する予定です。アマチュア各位のレポートをお待ちします。
 -------------------------------------------------------------------------------- 
  1997年10月14日 00時35分 確認のテレメトリ音 151 KB (A0) 
  1997年10月14日 11時10分 確認のテレメトリ音 216 KB (異常キーイング) 

  以上 JARLのホ−ムページの http://www.jarl.or.jp/Japanese/3_Fuji/new/fuji.htm

===================== FO-20 ふじ2号 のテレメトリ観測結果 ====================

  7月19日(木)19:45(JST)の観測結果では以前観測した単一周波数の
ドップラー効果で周波数がずれていくのみの状態でした。
                                         
   =============   JAS-2 (ふじ3号)と現在までの情報   ===========
  
  A.電話によるふじ3号の運用情報
      社団法人日本アマチュア連盟によるサービス
           TEL .   03− 3942 − 1000
  B.アマチュア無線FAXサービス
      JARLによるふじ3号の軌道情報(オービットカレンダー)
         FAX No.  03− 3233 −0055
  C.WWWブラウザで情報を簡単に見れる人のためにJAS−2
     ふじ3号の衛星としての運用されるまでの名前)の概要、打ち上げ
     までの状況、運用中における状況を説明したホームページを紹介し
     ておきます.
     社団法人日本アマチュア無線連盟(JARL)のホームページ

          http://www.jarl.or.jp/Japanese/3_Fuji/jasmenu.htm
 
     宇宙開発事業団(NASDA)ホームページ 
          http://www.nasda.go.jp/
         打上げ衛星 :地球観測プラットフォーム技術衛星(ADEOS) 
                       アマチュア衛星3号(JAS-2)
          http://spaceboy.nasda.go.jp/note/eisei/j/Eis15h_j.html#Eis15h_01_j
     http://spaceboy.nasda.go.jp/note/eisei/j/Eis15i_j.html        

  D.JAMSATによる軌道情報の活用
        JAMSATのホームページまたはjamsat−kepsの軌道要素より
      衛星の軌道情報を得る.
     JAMSATホームページ
               URL    http://www.jamsat.or.jp
       上記ホームページでは各地で行われるアマチュア通信衛星に関する
      ミューティングのお知らせや世界のアマチュア衛星に関する情報が
      満載されています.
 ========================================================================  
     JAMSATのメンバーのご協力によりJH6MME(高山 秀造)が
    執筆・編集を担当しております.ご指摘の意見、疑問やこのようにしたら
    というアイデアがありましたら小さなことでもかまいませんので気軽に下
    記アドレスまでご連絡ください.jamsat−newsからjas2
    infoへの転載をJH4PHW局坂井さんに担当して頂いております.  
                  E-mail : jh6mme@jamsat.or.jp : jh4phw@jamsat.or.jp
 ===============================   END  ===============================